Find Hawk 12A

NORAD ID: 64623 Int'l Des: 2025-138 Owner: HE360 Country: US operational
LEOCIRCULARRETROGRADESSO

リアルタイム位置

3D地球を読み込み中...

Hawk 12Aについて

説明を読み込み中...

次回通過

Passes for default location (London). Set your location on the main map for personalized predictions.

高度履歴

Loading altitude history...

軌道要素

1 64623U 25138C 26104.56110902 .00002638 00000-0 13369-3 0 9991
2 64623 97.4420 108.3830 0014107 7.8441 352.3010 15.17764837 44213
Epoch: Apr 14, 2026 • Age: 8 hours

現在のステータス

高度 509.4 km
速度 7.62 km/s
衛星直下点 37.00°N, 63.08°W
打ち上げ日 Jun 26, 2025
運用期間 0.7 years
タイプ other

技術仕様

分類 Payload
質量 31.00 kg
乾燥質量 30.00 kg
総質量 31.00 kg
長さ 0.45 m
直径 0.30 m
スパン 1.00 m
形状 Box + 2 pan
製造者 UTIAS
バスタイプ Hawk2G
フェーズステータス In Orbit
所有者/国 HE360/US

Most Searched